YAHSAT 1A

Last updated on Thu Mar 05 2026 00:02:56 GMT+0000 (Coordinated Universal Time)

1 37393U 11016B 26063.30044475 .00000090 00000+0 00000+0 0 9995 2 37393 0.0104 131.2011 0003351 218.7759 332.7073 1.00269069 41353
UTC large
Height (km)
Speed (km/s)
/
Latitude / Longitude
Inclination (degrees)
Orbital Period (minutes)
Azimuth
Elevation
Range (km)
Doppler Factor

Next 0 passes for location: London (51.5072 / 0.1276)

Sorry there are no passes over London.